User: anonymous   Login
Location: Mount Kobau Star Party
(49.1167°N, 119.7333°W)
Time: 02:01:48
(UTC-07:00)
Language:

TSX-5 - Orbit

View from above orbital plane
View from above orbital plane
View from above satellite
View from above satellite

Ground track
Ground track

The orbit data is extracted from the following two-line orbital elements,

1 26374U 00030A   16120.50338267  .00005434  00000-0  47015-3 0  9995
2 26374  68.9335  27.1930 0655045  23.5122 339.4523 14.03162926798030
Epoch (UTC): 29 April 2016 12:04:52
Eccentricity: 0.0655045
inclination: 68.9335°
perigee height: 407 km
apogee height: 1358 km
right ascension of ascending node: 27.1930°
argument of perigee: 23.5122°
revolutions per day: 14.03162926
mean anomaly at epoch: 339.4523°
orbit number at epoch: 79803

The dashed part of the orbit path shows where the satellite is in the earth's shadow,  

DLR